Flag for Uruguay Weather past 2 weeks in Minas, Uruguay

Now
55 °F

Passing clouds.


Feels Like: 53 °F
Forecast: 48 / 68 °F
Wind: 8 mph from Southwest

Location: Capitan Corbeta

Current Time: Oct 20, 2014 at 7:20:24 AM

Latest Report: Oct 20, 2014 at 7:00 AM


Visibility: N/A

Pressure: 30.07 "Hg

Humidity: 72%

Dew point: 46 °F

Location of MinasLocation

Historic Weather in Minas — Graph

°F

Minas temperature yesterday

Maximum temperature yesterday: 66 °F (at 2:00 PM)
Minimum temperature yesterday: 55 °F (at 9:00 PM)
Average temperature yesterday: 62 °F

Past Weeks' High & Low Weather Summary

 TemperatureHumidityPressure
High81 °F (Oct 8, 3:00 PM)100% (Oct 9, 7:00 AM)30.18 "Hg (Oct 9, 7:00 AM)
Low48 °F (Oct 13, 4:00 AM)31% (Oct 17, 3:00 PM)29.53 "Hg (Oct 9, 5:00 PM)
Average63 °F78%29.93 "Hg
* Reported Oct 5 6:00 AM — Oct 20 6:00 AM, Minas, Weather by CustomWeather, © 2014

Note: Actual official high and low records may vary slightly from our data, if they occured in-between our weather recording intervals... More about our weather records

Advertising

Minas weather history for previous 24 hours

 ConditionsComfort  
Time TempWeatherWind HumidityBarometerVisibility
6:00 AM
Oct 20
55 °FPassing clouds.10 mph72%30.07 "HgN/A
5:00 AM55 °FPassing clouds.14 mph72%30.04 "HgN/A
4:00 AM57 °FPassing clouds.13 mph72%30.04 "HgN/A
1:00 AM59 °FPassing clouds.13 mph82%30.04 "HgN/A
12:00 AM57 °FPassing clouds.8 mph88%30.01 "HgN/A
11:00 PM
Oct 19
59 °FPassing clouds.12 mph88%30.01 "HgN/A
10:00 PM55 °FClear.3 mph82%29.98 "Hg10 mi
9:00 PM55 °FClear.6 mph72%29.98 "Hg10 mi
8:00 PM61 °FClear.5 mph63%29.98 "Hg10 mi
7:00 PM64 °FSunny.8 mph52%29.98 "Hg10 mi
6:00 PM66 °FSunny.15 mph60%29.98 "Hg10 mi
5:00 PM66 °FSunny.17 mph52%29.95 "Hg10 mi
4:00 PM66 °FSunny.17 mph56%29.95 "Hg10 mi
2:00 PM66 °FSunny.15 mph60%29.98 "Hg10 mi
1:00 PM64 °FSunny.14 mph60%29.98 "Hg10 mi
12:00 PM64 °FSunny.13 mph60%29.95 "Hg10 mi
11:00 AM64 °FSunny.14 mph60%29.95 "Hg10 mi
10:00 AM64 °FSunny.12 mph64%29.92 "Hg10 mi
9:00 AM63 °FSunny.9 mph68%29.89 "Hg10 mi
8:00 AM63 °FSunny.9 mph68%29.86 "Hg10 mi
7:00 AM57 °FSunny.8 mph77%29.83 "Hg10 mi
Weather by CustomWeather, © 2014

See weather overviewHow to use our weather pages